Regional Weather Roundup
Issued by NWS

Home | Current Version | Previous Version | Graphics & Text | Print | Product List | Glossary On
Versions: 1 2 3 4 5 6 7 8 9 10 11 12 13 14 15 16 17 18 19 20 21 22 23 24 25 26 27 28 29 30 31 32 33 34 35 36 37 38 39 40 41 42 43 44 45 46 47 48 49 50
000
ASUS43 KIND 231809
RWRIN

WEATHER ROUNDUP FOR INDIANA
NATIONAL WEATHER SERVICE INDIANAPOLIS IN
200 PM EDT WED JUL 23 2014

NOTE: "FAIR" INDICATES FEW OR NO CLOUDS BELOW 12,000 FEET WITH NO
SIGNIFICANT WEATHER AND/OR OBSTRUCTIONS TO VISIBILITY.

* - STATION DOES NOT REPORT WEATHER SUCH AS PRECIPITATION OR FOG.

+ - STATION NOT QUALITY CONTROLLED BY THE NATIONAL WEATHER SERVICE.
    USE DATA WITH CAUTION...ESPECIALLY DEWPOINT AND RELATIVE
    HUMIDITY OBSERVATIONS.

INZ001>003-010>013-019-020-231900-
NORTHWEST INDIANA

CITY           SKY/WX    TMP DP  RH WIND       PRES   REMARKS
GARY /AIRPORT/ MOSUNNY   68  59  73 N14G30    30.18R
KNOX *+        SUNNY     73  59  62 N17G23    30.10F
LA PORTE +     MOSUNNY   69  58  68 N18G25    30.13F
6HR MIN TEMP:  64; 6HR MAX TEMP:  70;

MICHIGAN CITY+ CLOUDY    66  55  68 N15G21    30.15S
MONTICELLO +   CLOUDY    74  64  71 N14G21    30.07S
RENSSELAER +   SUNNY     72  63  73 N10G20    30.11F
VALPARAISO     MOSUNNY   69  58  67 N14G21    30.13F
6HR MIN TEMP:  64; 6HR MAX TEMP:  70;


$$

LMZ046-743>745-231900-
SOUTHERN LAKE MICHIGAN

STATION/POSITION TIME  TEMP WIND        PRES
                       AIR  DIR/SP/G
                 (UTC) (F)  (DEG/KT/KT) (MB)
MICHIGAN CITY    1800   63  340/ 20/ 23   N/A

$$

INZ004-005-014>016-021>024-231900-
NORTH CENTRAL INDIANA

CITY           SKY/WX    TMP DP  RH WIND       PRES   REMARKS
ELKHART        PTSUNNY   72  57  60 NW9       30.11F
GOSHEN         CLOUDY    72  60  66 NW13G18   30.10S
6HR MIN TEMP:  65; 6HR MAX TEMP:  72;

LOGANSPORT +   CLOUDY    72  63  73 N10       30.08F
PERU/GRISSOM   CLOUDY    74  69  86 N10       30.07F
6HR MIN TEMP:  69; 6HR MAX TEMP:  74; 6HR PCP: TRACE;

ROCHESTER +    CLOUDY    73  61  64 N10       30.09F
SOUTH BEND     PTSUNNY   74  58  57 N12       30.11F
6HR MIN TEMP:  64; 6HR MAX TEMP:  74;

WARSAW +       CLOUDY    70  61  73 N9        30.09F

$$

INZ006>009-017-018-025>027-231900-
NORTHEAST INDIANA

CITY           SKY/WX    TMP DP  RH WIND       PRES   REMARKS
ANGOLA *+      PTSUNNY   73  59  60 N8        30.07F
AUBURN +       CLOUDY    72  59  64 N12       30.08S
FORT WAYNE     DRIZZLE   68  64  87 NW13      30.07S FOG
6HR MIN TEMP:  68; 6HR MAX TEMP:  73; 6HR PCP: TRACE;

HUNTINGTON +   CLOUDY    67  64  91 N9        30.07S
6HR MIN TEMP:  66; 6HR MAX TEMP:  71;


$$

INZ028-029-035-036-043>045-051>053-231900-
WEST CENTRAL INDIANA

CITY           SKY/WX    TMP DP  RH WIND       PRES   REMARKS
GREENCASTLE +  CLOUDY    70  70 100 NW7       30.07S FOG
LAFAYETTE      MOSUNNY   76  63  64 N15       30.07F
6HR MIN TEMP:  68; 6HR MAX TEMP:  77;

TERRE HAUTE    CLOUDY    70  68  93 N9        30.06F FOG
6HR MIN TEMP:  70; 6HR MAX TEMP:  77; 6HR PCP:  0.02;


$$

INZ030>032-037>040-046>048-054>057-064-065-231900-
CENTRAL INDIANA

CITY           SKY/WX    TMP DP  RH WIND       PRES   REMARKS
ANDERSON       CLOUDY    75  70  83 NW12      30.07R
CP ATTERBURY + CLOUDY    79  70  73 SW5       30.04F
COLUMBUS       PTSUNNY   77  73  88 CALM      30.03F
INDIANAPOLIS   CLOUDY    74  68  81 W7        30.05S
6HR MIN TEMP:  68; 6HR MAX TEMP:  74; 6HR PCP:  1.58;

-EAGLE CREEK   RAIN      72  68  87 NW3       30.05S FOG
6HR MIN TEMP:  70; 6HR MAX TEMP:  73; 6HR PCP:  0.64;

KOKOMO *+      CLOUDY    73  68  83 N13       30.06F
MARION +       CLOUDY    73  67  81 N9        30.06F
MT COMFORT *+  CLOUDY    73  73 100 W7        30.07R
SHELBYVILLE    CLOUDY    76  71  85 NW5       30.04S THUNDER
6HR MIN TEMP:  67; 6HR MAX TEMP:  78; 6HR PCP:  1.68;

ZIONSVILLE +   CLOUDY    73  68  83 N10       30.07S
6HR MIN TEMP:  70; 6HR MAX TEMP:  74; 6HR PCP:  0.37;


$$

INZ033-034-041-042-049-050-058-059-231900-
EAST CENTRAL INDIANA

CITY           SKY/WX    TMP DP  RH WIND       PRES   REMARKS
MUNCIE         CLOUDY    74  69  85 NW6       30.05S
6HR MIN TEMP:  71; 6HR MAX TEMP:  74; 6HR PCP: TRACE;


$$

INZ060-061-067>069-081>083-085>088-231900-
SOUTHWEST INDIANA

CITY           SKY/WX    TMP DP  RH WIND       PRES   REMARKS
EVANSVILLE     CLOUDY    78  68  71 NE12      30.04R
6HR MIN TEMP:  71; 6HR MAX TEMP:  78; 6HR PCP:  0.01;

HUNTINGBURG *+ CLOUDY    77  68  73 CALM      30.04F
6HR MIN TEMP:  72; 6HR MAX TEMP:  77; 6HR PCP:  0.04;

WASHINGTON +   CLOUDY    75  71  86 N3        30.03F
6HR MIN TEMP:  69; 6HR MAX TEMP:  75; 6HR PCP:  0.14;


$$

INZ062-063-066-070>080-084-089>092-231900-
SOUTH CENTRAL AND SOUTHEAST INDIANA

CITY           SKY/WX    TMP DP  RH WIND       PRES   REMARKS
BLOOMINGTON    CLOUDY    78  69  73 SW6       30.04F
6HR MIN TEMP:  71; 6HR MAX TEMP:  78; 6HR PCP:  1.66;


$$




USA.gov is the U.S. government's official web portal to all federal, state and local government web resources and services.